Simultaneous Nadir Overpasses (SNOs) Predictions

Prediction of SNOs between METOP-B and TERRA Satellite Orbit:

Table of predicted SNOs for the next 14.0 days since TLE Epoch: 10/31/2012
Index Date (METOP-B) Time (METOP-B) METOP-B Lat,Lon Date (TERRA) Time (TERRA) TERRA Lat,Lon Distance(km) Time Diff (sec)
1 11/01/2012 04:36:02 -81.26, -22.70 11/01/2012 04:36:44 -81.26, -22.58 2.01 42
2 11/01/2012 05:26:42 81.27, 145.07 11/01/2012 05:26:10 81.27, 145.17 1.69 32
3 11/04/2012 00:10:28 -81.26, 43.89 11/04/2012 00:10:58 -81.27, 44.07 3.27 30
4 11/04/2012 01:01:08 81.27,-148.40 11/04/2012 01:00:25 81.26,-148.58 3.23 43
5 11/06/2012 19:44:55 -81.26, 110.13 11/06/2012 19:45:13 -81.25, 110.19 1.20 18
6 11/06/2012 20:35:34 81.27, -81.84 11/06/2012 20:34:38 81.28, -81.73 2.10 56
7 11/09/2012 15:19:21
